Temp
10 10 10 11 11 11 11 12 12 12 12 12 12 12 12 11 11 12 13 11 11 12 13 13 14 13 13 12 13 13 9 11 12 13 12 14 12 14 14 15 14 15 16 16 16
10 10 10 11 11 11 11 11 12 12 12 12 12 12 12 12 11 12 11 11 11 12 14 13 12 12 13 13 12 11 9 13 13 13 11 12 12 12 12 12 13 13 16 15 15
9 10 10 10 11 11 12 12 12 12 12 12 12 12 12 11 11 11 11 11 12 12 11 11 11 12 12 13 12 11 10 11 13 13 12 11 11 12 11 10 12 13 13 14 14
9 10 10 10 11 11 11 12 12 12 12 12 12 12 12 11 12 10 11 11 11 11 11 11 11 11 11 11 11 10 11 11 11 11 11 10 11 10 11 11 12 12 12 12 13
10 10 11 11 11 11 12 12 12 12 12 12 12 11 11 11 10 10 11 11 11 10 10 10 9 9 8 9 10 9 10 10 11 10 10 10 10 10 11 12 13 13 13 13 13
10 11 11 11 11 11 11 12 12 12 12 12 11 11 11 10 10 10 10 10 10 10 9 9 8 8 8 9 9 10 10 10 10 11 11 11 10 11 12 13 13 13 14 14 14
10 10 10 10 10 11 11 12 12 12 12 11 11 10 10 9 10 10 10 10 9 9 9 8 8 9 8 8 10 10 8 8 11 12 11 12 9 9 13 12 13 13 13 13 13
10 10 10 10 10 11 11 11 11 11 11 11 10 10 9 9 9 10 10 9 9 9 9 9 8 8 8 9 9 9 9 8 11 11 12 11 9 11 12 12 12 12 12 13 13
8 9 9 10 10 10 11 11 11 11 10 9 9 9 9 9 9 9 9 9 9 9 8 8 8 8 9 7 5 8 6 8 8 11 10 10 9 10 12 12 11 12 12 12 12
8 8 8 9 10 10 11 11 11 10 10 9 9 8 8 9 9 9 9 9 9 8 8 8 8 7 6 5 5 6 6 8 7 9 10 9 9 10 12 11 11 11 11 12 12
7 7 7 9 9 9 11 11 10 9 9 10 8 9 9 9 9 9 9 9 8 8 8 8 5 5 8 9 9 8 7 6 8 9 9 9 9 10 11 10 10 11 12 13 14
7 7 7 8 9 9 9 9 7 7 6 8 8 8 8 8 8 8 8 8 8 8 9 7 5 9 10 10 9 8 6 6 8 9 9 9 8 9 10 10 11 12 13 14 14
7 7 7 7 9 9 8 7 6 6 4 8 7 7 8 8 9 8 8 8 8 8 9 7 9 10 10 9 8 7 7 7 7 9 8 7 7 8 11 11 13 14 14 14 14
6 7 7 7 8 8 7 7 7 6 2 4 8 7 8 8 8 8 8 8 8 8 8 7 9 10 9 8 8 4 9 9 8 5 4 7 7 7 9 9 11 13 14 12 11
6 6 7 7 7 8 7 7 7 6 4 7 7 7 7 8 8 7 7 7 7 9 8 8 10 9 8 8 10 7 9 8 8 6 2 6 5 5 8 10 10 9 11 12 11
6 6 6 6 7 7 7 7 7 3 5 5 7 7 7 8 9 7 7 7 7 7 7 7 9 9 8 9 9 9 8 7 3 2 3 6 5 9 9 11 11 10 11 10 10
5 5 6 5 6 7 7 7 3 2 9 8 8 8 8 8 9 7 7 6 6 6 7 7 9 9 10 8 9 8 5 1 2 1 5 8 6 6 9 11 10 9 9 9 8
4 5 5 5 6 6 7 5 3 6 9 11 10 9 9 10 10 8 8 7 7 9 5 3 5 8 8 9 9 8 6 2 3 2 6 7 5 7 10 10 10 9 7 8 8
4 4 5 5 6 6 6 2 4 6 10 9 10 9 8 10 10 9 7 8 10 8 6 6 7 10 8 9 10 9 5 7 5 5 4 4 7 11 10 10 7 7 7 6 5
3 4 4 5 5 5 5 5 6 10 10 9 9 9 10 9 8 7 10 10 11 10 10 9 6 9 11 10 10 9 8 5 3 3 4 4 6 6 8 8 6 5 5 5 4
2 3 4 5 4 3 4 5 8 10 10 9 9 8 8 9 9 10 10 11 11 10 10 9 7 7 9 8 8 7 7 6 4 3 2 3 6 10 10 10 5 4 5 4 3
2 3 3 3 3 3 4 5 7 8 9 9 9 8 9 8 8 9 9 10 12 10 8 8 7 4 6 9 9 9 8 6 2 4 4 4 7 11 10 10 6 5 5 3 4
2 3 2 3 3 3 5 6 6 7 7 7 8 9 9 9 8 8 9 11 11 9 9 9 6 3 5 7 9 9 9 9 7 4 6 4 7 9 10 10 7 5 3 3 5
2 2 2 2 2 2 3 4 5 6 6 7 7 7 7 7 8 7 8 10 10 10 10 9 6 6 5 7 7 7 8 8 6 3 6 6 8 9 9 6 6 4 3 3 5
1 2 2 2 2 2 3 3 3 4 4 5 5 6 6 6 6 7 8 8 9 9 8 7 5 5 5 6 6 6 7 7 6 7 5 8 7 9 9 6 6 4 3 3 5
2 1 1 1 1 1 2 3 3 4 4 4 4 5 4 4 5 4 5 5 5 6 7 6 5 6 4 6 5 5 7 7 7 8 7 7 7 9 8 8 6 4 3 3 5
0 1 1 1 1 2 2 2 2 3 4 3 4 4 3 5 6 5 5 5 6 5 5 7 4 4 4 4 5 5 7 7 8 8 8 7 9 6 7 6 4 3 3 3 4
Height
1560 1560 1559 1557 1556 1554 1552 1551 1550 1547 1546 1544 1542 1540 1539 1538 1536 1535 1534 1535 1533 1530 1528 1525 1523 1522 1522 1522 1523 1523 1532 1535 1530 1528 1525 1520 1520 1518 1518 1514 1513 1513 1512 1511 1509
1561 1559 1557 1556 1555 1554 1552 1550 1549 1547 1545 1544 1542 1540 1538 1538 1537 1536 1537 1535 1533 1530 1527 1525 1524 1523 1524 1525 1525 1525 1535 1529 1527 1526 1525 1523 1522 1521 1520 1513 1503 1508 1505 1507 1506
1560 1559 1557 1555 1554 1553 1551 1549 1547 1546 1544 1543 1541 1539 1538 1537 1538 1537 1537 1536 1534 1532 1529 1527 1526 1526 1526 1527 1529 1528 1531 1527 1524 1525 1525 1523 1521 1521 1519 1511 1506 1504 1501 1502 1502
1559 1557 1556 1554 1553 1551 1550 1548 1546 1545 1543 1542 1540 1538 1537 1537 1541 1538 1538 1537 1535 1532 1530 1528 1526 1526 1529 1530 1530 1531 1526 1527 1524 1523 1523 1523 1520 1517 1514 1504 1502 1502 1500 1497 1496
1558 1557 1555 1553 1551 1550 1548 1546 1545 1544 1542 1541 1539 1538 1537 1537 1538 1538 1538 1536 1535 1533 1531 1530 1529 1529 1532 1532 1530 1529 1526 1525 1522 1520 1518 1516 1514 1514 1503 1499 1498 1496 1493 1491 1490
1558 1556 1555 1553 1551 1549 1547 1545 1544 1542 1540 1539 1537 1537 1537 1538 1537 1537 1537 1536 1535 1533 1532 1531 1532 1532 1533 1532 1532 1528 1526 1521 1516 1514 1513 1511 1509 1510 1495 1494 1493 1491 1488 1485 1484
1557 1555 1554 1552 1550 1548 1546 1543 1542 1540 1539 1537 1536 1535 1536 1539 1536 1537 1537 1536 1535 1534 1533 1532 1532 1533 1533 1532 1530 1527 1527 1520 1511 1511 1508 1506 1508 1502 1493 1492 1489 1486 1483 1481 1480
1556 1555 1553 1551 1549 1547 1544 1542 1540 1538 1536 1535 1535 1535 1536 1536 1536 1536 1536 1535 1534 1534 1533 1532 1532 1532 1532 1531 1528 1528 1528 1529 1512 1510 1508 1508 1504 1495 1491 1486 1482 1480 1475 1473 1471
1556 1554 1552 1550 1548 1545 1543 1540 1538 1536 1535 1534 1535 1535 1537 1536 1536 1536 1536 1536 1534 1533 1533 1532 1532 1532 1532 1533 1538 1529 1541 1530 1520 1507 1508 1509 1500 1492 1488 1483 1476 1472 1466 1464 1462
1557 1554 1551 1549 1546 1544 1541 1538 1535 1535 1535 1534 1535 1538 1537 1537 1535 1535 1536 1535 1533 1533 1533 1533 1532 1533 1535 1538 1555 1540 1539 1529 1527 1510 1505 1501 1487 1485 1479 1476 1471 1466 1460 1456 1455
1557 1554 1551 1549 1546 1543 1540 1537 1539 1537 1534 1534 1535 1535 1535 1535 1535 1534 1535 1533 1533 1534 1533 1532 1538 1542 1533 1530 1531 1532 1533 1530 1519 1508 1505 1494 1489 1472 1472 1465 1461 1456 1453 1450 1449
1556 1554 1551 1549 1546 1543 1541 1539 1542 1543 1535 1531 1531 1532 1533 1533 1534 1533 1534 1535 1534 1535 1532 1536 1539 1527 1526 1527 1529 1529 1531 1525 1512 1505 1506 1489 1489 1470 1465 1460 1455 1450 1449 1447 1446
1554 1553 1551 1548 1546 1545 1543 1543 1542 1541 1539 1530 1529 1530 1531 1533 1533 1532 1534 1533 1533 1533 1530 1536 1526 1523 1524 1525 1527 1526 1526 1519 1516 1503 1501 1492 1486 1470 1457 1454 1449 1444 1440 1442 1442
1552 1551 1550 1548 1548 1544 1543 1543 1542 1540 1548 1535 1529 1530 1531 1531 1533 1532 1533 1535 1532 1531 1529 1529 1522 1523 1524 1525 1522 1536 1512 1511 1510 1517 1523 1499 1493 1475 1462 1455 1447 1443 1438 1441 1442
1549 1549 1549 1547 1546 1544 1544 1542 1542 1541 1575 1532 1530 1530 1530 1532 1532 1531 1531 1532 1532 1530 1532 1525 1520 1522 1524 1519 1516 1517 1509 1510 1506 1513 1523 1500 1506 1478 1464 1455 1449 1446 1443 1442 1439
1545 1547 1546 1546 1546 1544 1542 1541 1542 1556 1562 1536 1529 1530 1530 1530 1529 1529 1531 1532 1531 1530 1528 1524 1519 1519 1517 1514 1513 1511 1510 1504 1511 1521 1530 1499 1502 1468 1459 1452 1448 1444 1441 1438 1434
1539 1542 1544 1544 1545 1543 1542 1541 1557 1570 1529 1532 1529 1529 1529 1528 1528 1528 1530 1531 1532 1535 1529 1523 1515 1512 1513 1516 1510 1511 1520 1542 1539 1543 1518 1489 1494 1472 1450 1447 1445 1442 1438 1435 1430
1533 1536 1539 1541 1542 1542 1542 1543 1559 1538 1527 1522 1523 1526 1528 1523 1524 1526 1527 1529 1522 1524 1533 1541 1532 1511 1510 1511 1512 1512 1518 1545 1542 1541 1503 1487 1494 1464 1443 1441 1442 1440 1435 1426 1420
1528 1531 1535 1537 1539 1541 1543 1554 1543 1534 1526 1527 1524 1526 1527 1522 1523 1524 1527 1523 1515 1519 1530 1529 1522 1504 1504 1503 1508 1510 1521 1512 1520 1514 1517 1493 1470 1449 1435 1437 1440 1436 1431 1426 1416
1526 1529 1531 1535 1535 1538 1541 1537 1531 1523 1525 1526 1528 1524 1522 1524 1525 1526 1518 1512 1513 1514 1515 1518 1526 1506 1501 1501 1501 1505 1506 1523 1529 1535 1516 1495 1474 1464 1440 1438 1436 1434 1427 1417 1406
1527 1529 1529 1532 1534 1535 1536 1532 1525 1523 1523 1526 1525 1526 1525 1525 1523 1520 1515 1511 1510 1512 1513 1516 1521 1515 1505 1504 1503 1509 1511 1511 1518 1522 1533 1514 1465 1437 1436 1433 1436 1428 1420 1413 1406
1526 1528 1527 1530 1532 1528 1529 1528 1526 1522 1522 1523 1523 1524 1525 1525 1524 1520 1518 1512 1508 1509 1515 1513 1517 1522 1507 1491 1493 1495 1498 1504 1526 1518 1511 1504 1452 1433 1430 1433 1433 1428 1418 1410 1403
1525 1526 1526 1528 1527 1525 1524 1523 1524 1524 1522 1523 1521 1521 1521 1523 1525 1517 1511 1506 1506 1508 1511 1512 1517 1529 1509 1498 1491 1492 1493 1493 1498 1503 1487 1505 1452 1424 1425 1430 1430 1427 1417 1410 1402
1526 1526 1525 1524 1523 1525 1525 1523 1522 1519 1519 1519 1520 1521 1522 1521 1520 1517 1513 1510 1508 1507 1506 1507 1512 1515 1516 1504 1501 1496 1491 1490 1495 1505 1480 1471 1446 1426 1430 1429 1426 1420 1417 1413 1404
1521 1523 1521 1520 1523 1524 1524 1524 1521 1520 1519 1519 1520 1521 1522 1521 1518 1515 1513 1511 1508 1505 1504 1505 1512 1510 1504 1501 1499 1491 1483 1476 1483 1473 1482 1447 1452 1427 1429 1429 1422 1421 1418 1413 1406
1522 1521 1521 1519 1519 1520 1522 1520 1520 1518 1521 1520 1523 1521 1522 1522 1519 1520 1518 1515 1515 1508 1509 1507 1508 1504 1504 1496 1494 1487 1470 1465 1463 1458 1458 1450 1440 1430 1427 1424 1422 1421 1416 1412 1407
1520 1519 1519 1518 1519 1519 1516 1517 1518 1517 1517 1517 1518 1519 1522 1517 1516 1515 1515 1514 1510 1510 1510 1507 1509 1510 1499 1497 1493 1480 1458 1455 1450 1446 1444 1448 1430 1430 1424 1424 1423 1419 1415 1412 1407
Wind_Speed
8 8 10 11 10 10 10 11 11 12 12 12 12 12 10 8 7 11 12 14 16 14 12 10 10 10 12 10 8 3 4 2 5 5 7 15 9 10 16 17 20 15 18 21 24
10 10 9 10 12 12 11 11 12 11 11 12 11 10 9 7 3 9 13 13 14 13 13 15 16 14 6 6 5 5 3 1 2 3 4 11 14 21 9 25 34 23 25 22 23
10 10 11 11 11 11 11 11 10 11 10 10 9 9 7 5 4 5 11 12 12 11 13 9 8 5 5 5 5 5 3 5 4 8 14 12 18 14 13 11 23 26 25 21 24
9 10 10 11 11 12 12 12 11 9 9 10 9 7 5 4 2 4 8 10 10 10 12 9 11 4 4 3 3 3 6 8 7 13 13 8 15 11 21 34 35 35 34 33 33
11 11 11 10 11 12 12 11 11 10 10 10 8 6 3 2 1 2 7 9 11 10 13 11 15 6 2 5 9 2 4 12 19 25 21 19 18 12 28 33 28 27 28 27 30
12 13 13 13 13 13 13 12 10 10 10 9 8 6 2 1 1 1 7 9 11 9 9 11 7 4 3 4 2 7 13 22 15 17 15 10 13 9 21 25 25 24 24 23 23
14 12 12 12 14 14 14 12 11 11 11 9 6 1 1 2 2 2 8 9 11 9 7 8 5 3 3 4 6 10 5 9 7 5 6 7 3 9 27 23 29 26 29 33 33
13 13 13 13 14 15 15 13 13 12 10 8 1 0 1 2 4 3 6 8 10 10 9 7 6 3 1 6 6 2 1 5 6 14 7 2 8 6 26 30 26 36 38 36 33
13 13 13 13 14 15 15 15 14 10 5 2 1 2 0 0 2 3 6 7 6 6 7 8 3 2 2 2 5 3 3 6 9 11 5 4 16 15 29 32 33 32 35 35 36
14 15 16 14 14 14 15 15 10 4 4 2 4 1 2 2 3 6 7 5 4 4 4 2 1 2 3 4 2 6 5 5 11 6 18 19 24 16 30 27 27 34 37 36 34
13 13 16 16 14 14 14 9 6 2 9 4 6 3 3 6 6 4 4 5 3 2 1 2 5 1 4 1 2 5 5 11 15 18 15 14 19 25 31 31 23 24 28 22 8
13 13 13 17 14 12 12 7 8 7 9 6 9 12 12 10 3 5 2 1 0 2 6 4 3 5 5 3 4 7 8 12 12 8 10 19 20 23 18 14 20 25 24 12 7
11 13 12 14 11 12 11 11 10 8 5 4 3 1 2 4 2 6 2 0 3 2 2 4 5 6 1 3 4 6 6 7 10 14 10 12 7 6 19 17 20 24 17 12 9
15 13 10 11 6 12 7 12 11 9 4 6 0 1 2 4 1 3 4 2 2 3 3 5 4 2 3 5 4 4 5 7 12 8 5 7 7 7 8 9 11 11 9 2 3
14 16 10 9 8 7 8 10 9 5 5 4 3 4 2 3 1 2 4 1 3 1 3 6 2 4 3 5 1 9 3 8 14 9 3 4 3 7 7 16 11 6 10 13 17
19 16 11 10 8 5 7 6 4 6 5 3 3 1 1 4 3 4 2 3 4 3 4 8 3 3 6 3 6 7 6 10 2 4 1 5 3 14 7 2 2 5 14 13 21
22 18 17 12 8 6 5 2 5 4 3 2 1 4 4 4 4 5 3 2 3 3 2 5 3 2 4 3 4 4 6 4 6 4 5 4 9 10 13 1 3 5 8 18 26
16 19 17 13 11 5 2 4 3 4 4 1 2 3 4 5 3 5 2 4 6 2 2 1 8 7 5 5 4 3 5 4 4 3 11 14 6 6 5 10 6 9 16 36 42
11 13 20 14 12 6 4 2 7 5 3 5 1 2 3 2 1 3 6 4 4 9 6 2 5 2 5 6 6 1 1 5 3 5 3 4 8 15 7 9 12 17 27 32 39
9 12 16 17 12 7 2 5 5 5 3 5 3 6 2 3 3 5 4 4 4 7 5 3 6 4 3 2 5 5 2 3 2 4 6 6 9 7 11 7 9 10 23 37 35
7 5 5 19 11 6 4 6 4 16 11 4 3 3 3 2 3 2 5 3 2 3 5 1 4 6 4 5 6 2 2 2 1 2 4 5 8 4 14 16 10 14 33 34 33
6 3 6 14 7 5 4 4 4 6 4 5 1 3 3 7 5 4 6 6 7 10 5 6 4 4 11 12 6 6 8 7 4 5 5 4 22 18 15 9 4 18 32 29 30
3 5 8 17 4 5 4 4 10 6 8 4 3 5 5 3 4 4 5 4 11 7 4 2 3 4 9 4 4 1 3 3 3 2 17 7 12 4 12 16 12 18 32 30 27
2 2 5 14 10 2 1 3 5 10 7 8 3 3 4 5 6 5 6 5 4 8 12 5 4 7 10 8 5 15 16 14 6 4 11 15 29 31 20 9 12 17 29 31 21
5 3 4 3 6 8 4 3 3 3 3 7 3 10 12 6 7 10 7 6 8 17 8 7 5 6 10 11 11 18 22 22 15 20 8 25 18 27 16 7 8 14 26 23 17
3 2 2 3 4 11 9 7 11 11 4 6 8 7 5 2 5 5 7 2 5 6 4 2 4 3 6 12 11 14 24 21 17 17 14 21 25 11 10 14 16 12 17 15 14
4 3 3 4 3 2 3 4 5 5 8 17 9 6 9 14 14 8 13 19 17 13 8 6 2 1 6 4 12 11 8 4 5 6 6 7 14 5 10 8 5 10 16 14 12
Wind_Direction
354 351 350 349 348 350 348 346 349 353 355 2 9 12 25 41 36 33 30 20 7 7 8 21 37 52 54 36 43 23 59 321 357 22 296 354 5 341 328 303 300 285 273 275 282
343 342 344 343 341 339 339 340 346 348 353 0 6 12 25 31 72 29 27 15 10 11 15 29 30 44 49 30 29 57 97 339 320 331 337 346 343 328 332 303 293 291 278 275 280
339 338 337 336 334 332 331 332 338 339 346 357 2 10 24 42 104 14 16 11 10 13 28 36 25 36 32 30 16 351 195 352 333 341 345 328 313 308 301 283 272 278 295 289 281
331 330 331 333 333 333 328 325 327 331 339 352 355 6 21 34 116 5 4 5 14 16 25 37 34 57 44 28 21 353 271 308 287 319 318 290 292 273 258 260 279 285 289 288 287
325 326 326 329 332 330 329 327 323 328 338 346 347 357 37 53 171 345 354 0 16 16 23 31 37 32 32 337 339 201 307 310 290 294 282 277 260 253 272 284 300 303 300 290 288
334 334 334 338 337 334 332 329 324 324 330 340 338 341 27 83 295 311 348 0 9 21 21 28 25 21 323 288 301 299 299 292 294 282 267 244 256 265 272 303 311 307 304 297 296
341 344 344 341 338 337 333 328 325 323 325 325 323 325 97 157 299 300 344 0 10 10 14 11 15 21 322 310 296 283 311 305 283 319 255 257 269 240 282 292 297 300 299 295 292
349 351 348 342 338 336 333 328 324 321 321 322 90 294 150 287 285 282 342 348 347 3 9 10 11 49 248 307 312 245 219 350 300 312 311 333 280 244 295 293 288 292 289 291 294
11 4 355 346 340 339 335 327 321 324 341 64 2 99 356 323 227 301 323 327 329 356 21 15 33 357 306 337 359 342 283 293 320 320 292 20 288 272 290 281 287 290 292 289 286
359 5 1 352 345 342 338 332 325 359 31 35 63 336 215 180 290 298 317 333 347 337 306 325 14 28 8 67 285 299 328 293 287 278 307 295 283 288 294 291 286 286 285 286 285
345 356 2 355 349 347 348 351 356 357 326 268 294 275 249 263 296 285 325 340 11 329 350 214 48 263 268 147 238 282 262 273 278 287 300 286 303 296 301 298 290 285 294 286 241
320 335 351 356 350 355 7 43 24 337 313 293 250 256 252 260 269 258 321 41 309 304 316 14 227 220 227 243 249 271 287 284 288 275 305 300 302 289 292 279 279 281 277 229 253
299 320 336 348 0 5 9 17 360 342 280 318 263 220 211 220 221 214 229 306 229 253 254 193 244 324 229 286 288 267 243 278 270 312 281 305 277 295 302 304 310 311 296 229 241
284 292 318 343 340 348 0 351 347 341 48 283 197 139 193 142 239 220 210 271 267 242 298 237 240 199 278 271 214 291 229 260 293 346 321 66 296 288 298 299 302 295 192 193 329
282 275 294 321 331 340 332 338 336 347 16 259 138 167 153 207 179 209 218 224 238 270 60 260 220 214 264 233 120 242 308 288 286 286 23 327 254 262 298 289 299 355 14 343 334
263 271 275 286 299 326 341 330 334 45 261 334 123 195 183 212 215 158 175 244 264 306 217 245 266 244 218 256 239 291 299 299 37 99 20 242 139 300 295 287 299 311 337 340 323
252 252 266 273 266 289 323 345 43 132 306 273 232 162 254 195 216 171 170 212 213 28 319 315 227 229 174 300 315 45 29 345 356 8 238 286 333 247 276 321 255 297 304 313 314
250 245 247 256 264 267 243 61 126 253 256 101 106 179 230 164 241 181 284 283 229 175 328 109 332 171 177 207 220 277 142 147 281 283 290 289 233 253 238 213 286 323 329 332 320
248 237 239 232 253 232 179 104 204 207 325 358 292 182 268 215 180 160 213 231 201 170 178 310 271 207 187 192 157 173 213 194 230 265 289 252 281 310 301 344 2 330 328 317 320
239 224 231 227 228 191 156 228 226 180 58 23 308 185 279 227 184 173 232 208 182 178 134 292 301 264 260 129 250 168 177 15 7 309 297 274 289 245 307 312 322 317 322 326 324
202 218 233 225 212 173 213 216 267 267 315 222 240 313 343 25 252 248 257 301 147 165 149 223 172 287 16 212 190 82 277 162 185 178 226 298 281 217 304 320 314 329 337 326 320
182 215 203 194 211 179 218 200 255 296 342 265 298 212 237 301 279 262 236 234 171 152 182 215 220 260 231 263 218 214 231 173 136 256 233 246 278 283 268 348 323 330 335 329 330
202 217 204 186 239 218 255 246 232 239 270 255 238 222 207 232 296 254 269 234 166 158 179 162 261 319 328 0 1 31 252 215 256 168 260 258 272 263 302 328 340 340 343 333 340
211 215 195 215 243 329 225 244 242 234 250 270 227 11 339 306 279 275 312 308 244 199 199 171 212 195 247 255 312 291 273 271 221 245 279 244 274 286 306 324 331 0 337 327 344
208 249 194 195 230 224 198 333 323 320 278 6 306 222 231 242 258 263 263 324 322 290 187 172 229 238 262 277 280 277 280 280 259 250 242 277 272 279 311 317 334 5 326 326 338
265 219 277 301 289 201 225 221 238 263 232 263 247 293 10 352 286 293 331 340 271 353 334 297 271 288 283 279 285 292 279 268 257 260 249 260 273 293 308 353 356 349 330 324 337
227 214 244 236 205 212 209 186 216 215 263 237 242 275 268 263 275 312 297 285 261 272 270 243 216 276 266 317 315 289 260 208 239 214 219 263 278 348 338 348 17 342 332 326 330